Regional Weather Roundup
Issued by NWS

Home | Current Version | Previous Version | Text Only | Print | Product List | Glossary Off
Versions: 1 2 3 4 5 6 7 8 9 10 11 12 13 14 15 16 17 18 19 20 21 22 23 24 25 26 27 28 29 30 31 32 33 34 35 36 37 38 39 40 41 42 43 44 45 46 47 48 49 50

000
ASUS44 KMEG 221710
RWRTN
TENNESSEE HOURLY STATE WEATHER ROUNDUP
NATIONAL WEATHER SERVICE MEMPHIS TN
1200 PM CDT TUE JUL 22 2014

TNZ002-004-019-021-049-052-054-088>092-221800-
WEST TENNESSEE

CITY           SKY/WX    TMP DP  RH WIND       PRES   REMARKS
MEMPHIS INTL   MOSUNNY   87  68  52 CALM      30.09S HX  90
NWS MEMPHIS      N/A     88 N/A N/A MISG        N/A
JACKSON        SUNNY     88  70  55 CALM      30.09S HX  93
DYERSBURG      SUNNY     84  64  51 CALM      30.10S
UNION CITY     SUNNY     84  70  61 VRB3      30.09R
PARIS          SUNNY     87  70  57 CALM      30.11S HX  92
LEXINGTON      PTSUNNY   84  73  70 CALM      30.09R HX  91
SAVANNAH       MOSUNNY   87  75  67 CALM      30.09S HX  96
$$

TNZ008-025-027-028-033-062-065-066-221800-
NORTH MIDDLE TENNESSEE

CITY           SKY/WX    TMP DP  RH WIND       PRES   REMARKS
NASHVILLE      PTSUNNY   88  70  55 SE7       30.11S HX  93
DICKSON        MOSUNNY   84  72  65 S3        30.11S
PORTLAND       MOSUNNY   86  70  58 S6        30.11S HX  90
CLARKSVILLE    MOSUNNY   87  68  52 S6        30.09S HX  90
LEBANON        MOSUNNY   87  71  58 S8        30.09F HX  92
SMYRNA         MOSUNNY   91  73  55 S6        30.11F HX  99
COOKEVILLE     MOSUNNY   86  72  62 CALM      30.13F HX  92
GALLATIN       MOSUNNY   89  72  57 VRB3      30.11F HX  96
CROSSVILLE     PTSUNNY   79  66  64 SE5       30.18F
$$

TNZ061-075-076-078-094-096-097-221800-
SOUTH MIDDLE TENNESSEE

CITY           SKY/WX    TMP DP  RH WIND       PRES   REMARKS
LEWISBURG      MOSUNNY   85  70  60 SE8       30.11S
FAYETTEVILLE   MOSUNNY   81  70  69 SE10      30.12F
TULLAHOMA      PTSUNNY   82  70  65 S7        30.14F
WINCHESTER     PTSUNNY   82  72  69 S5        30.13S
MCMINNVILLE    MOSUNNY   84  73  70 S3        30.13F HX  91
COLUMBIA       MOSUNNY   88  75  66 S7        30.10S HX  97
SHELBYVILLE    MOSUNNY   84  73  70 S5        30.12F HX  91
$$

TNZ017-018-042-046-047-221800-
NORTHEAST TENNESSEE

CITY           SKY/WX    TMP DP  RH WIND       PRES   REMARKS
TRI CITIES     MOSUNNY   84  65  52 S5        30.16F
ELIZABETHTON   SUNNY     82  64  54 VRB5      30.16F
$$

TNZ012-013-036-069-073-074-221800-
CENTRAL EAST TENNESSEE

CITY           SKY/WX    TMP DP  RH WIND       PRES   REMARKS
KNOXVILLE      PTSUNNY   84  69  60 CALM      30.13F
OAK RIDGE      CLOUDY    84  70  62 S5        30.15S
GATLINBURG     MOSUNNY   82  68  61 VRB5      30.13F
MORRISTOWN       N/A     82  70  65 VRB5      30.16F
$$

TNZ083-085-099-221800-
SOUTHEAST TENNESSEE

CITY           SKY/WX    TMP DP  RH WIND       PRES   REMARKS
CHATTANOOGA    PTSUNNY   84  68  58 NE5       30.13F
$$

SKY/WX REPORTED AS FAIR MEANS FEW OR NO CLOUDS BELOW
12 THOUSAND FEET.



USA.gov is the U.S. government's official web portal to all federal, state and local government web resources and services.